Terminal Aerodrome Forecast
Issued by NWS Honolulu, HI

Home | Current Version | Previous Version | Text Only | Print | Product List | Glossary On
Versions: 1 2 3 4 5 6 7 8 9 10 11 12 13 14 15 16 17 18 19 20 21 22 23 24 25 26 27 28 29 30 31 32 33 34 35 36 37 38 39 40 41 42 43 44 45
000
FTPA31 PHFO 312100 AAA
TAFHNL
TAF AMD
PHNL 312106Z 3121/0124 06011KT P6SM FEW030 SCT045
     FM312200 06014G21KT P6SM FEW030 SCT045
     FM010600 05009KT P6SM FEW025 SCT040
     FM012000 06015G23KT P6SM FEW030 SCT045=

USA.gov is the U.S. government's official web portal to all federal, state and local government web resources and services.